Location: B?jaj?g
(11.7167°N, 92.6667°E)
Time: 17:30:22
(UTC+00:00)

Cosmos 1000 Rocket - Pass Details

Date: 18 September 2020
Orbit: 954 x 992 km, 82.9° (Epoch: 31 October)

Event Time Altitude Azimuth Distance (km) Brightness Sun altitude
Rises 22:16:44 0° 184° (S) 3,680 7.4 -20.8°
Reaches altitude 10° 22:19:15 10° 184° (S) 2,728 6.7 -20.2°
Maximum altitude 22:25:31 88° 270° (W) 978 4.4 -18.7°
Drops below altitude 10° 22:31:43 10° 3° (N) 2,702 6.9 -17.2°
Sets 22:34:12 0° 4° (N) 3,643 7.6 -16.6°
